TimeCEST,TemperatureF,Dew PointF,Humidity,Sea Level PressureIn,VisibilityMPH,Wind Direction,Wind SpeedMPH,Gust SpeedMPH,PrecipitationIn,Events,Conditions,WindDirDegrees,DateUTC
12:15 AM,71.6,66.2,83,30.01,6.2,East,2.3,-,N/A,,Partly Cloudy,100,2013-08-30 22:15:00
12:45 AM,69.8,66.2,88,30.01,6.2,SSE,2.3,-,N/A,,Partly Cloudy,160,2013-08-30 22:45:00
1:15 AM,69.8,66.2,88,30.01,6.2,East,2.3,-,N/A,,Partly Cloudy,100,2013-08-30 23:15:00
1:45 AM,69.8,66.2,88,30.01,6.2,Calm,Calm,-,N/A,,Partly Cloudy,0,2013-08-30 23:45:00
2:15 AM,68.0,66.2,94,30.01,6.2,East,2.3,-,N/A,,Partly Cloudy,80,2013-08-31 00:15:00
2:45 AM,68.0,64.4,88,29.98,6.2,NNE,3.5,-,N/A,,Partly Cloudy,20,2013-08-31 00:45:00
3:15 AM,68.0,66.2,94,30.01,6.2,NNE,3.5,-,N/A,,Partly Cloudy,20,2013-08-31 01:15:00
3:45 AM,66.2,66.2,100,30.01,-9999.0,NNE,4.6,-,N/A,,Clear,30,2013-08-31 01:45:00
4:15 AM,66.2,64.4,94,30.01,-9999.0,NNE,3.5,-,N/A,,Clear,30,2013-08-31 02:15:00
4:45 AM,66.2,64.4,94,30.01,-9999.0,North,3.5,-,N/A,,Clear,360,2013-08-31 02:45:00
5:15 AM,66.2,64.4,94,30.01,-9999.0,NE,2.3,-,N/A,,Clear,50,2013-08-31 03:15:00
5:45 AM,66.2,64.4,94,30.01,6.2,NE,2.3,-,N/A,,Partly Cloudy,40,2013-08-31 03:45:00
6:15 AM,64.4,62.6,94,30.01,6.2,North,4.6,-,N/A,,Partly Cloudy,10,2013-08-31 04:15:00
6:45 AM,64.4,62.6,94,30.01,-9999.0,NE,3.5,-,N/A,,Clear,50,2013-08-31 04:45:00
7:15 AM,64.4,62.6,94,30.01,-9999.0,NNE,3.5,-,N/A,,Clear,30,2013-08-31 05:15:00
7:45 AM,64.4,62.6,94,30.01,-9999.0,NE,5.8,-,N/A,,Clear,40,2013-08-31 05:45:00
8:15 AM,64.4,62.6,94,30.01,-9999.0,North,4.6,-,N/A,,Clear,10,2013-08-31 06:15:00
8:45 AM,68.0,62.6,83,30.01,-9999.0,North,6.9,-,N/A,,Clear,350,2013-08-31 06:45:00
9:15 AM,69.8,60.8,73,30.04,-9999.0,North,2.3,-,N/A,,Clear,10,2013-08-31 07:15:00
9:45 AM,71.6,60.8,69,30.04,6.2,NE,1.2,-,N/A,,Partly Cloudy,50,2013-08-31 07:45:00
10:15 AM,73.4,60.8,65,30.04,6.2,North,2.3,-,N/A,,Partly Cloudy,360,2013-08-31 08:15:00
10:45 AM,75.2,60.8,61,30.04,6.2,NNE,1.2,-,N/A,,Scattered Clouds,30,2013-08-31 08:45:00
11:15 AM,77.0,60.8,57,30.04,6.2,South,3.5,-,N/A,,Partly Cloudy,170,2013-08-31 09:15:00
11:45 AM,78.8,66.2,65,30.04,6.2,WSW,4.6,-,N/A,,Partly Cloudy,240,2013-08-31 09:45:00
12:15 PM,78.8,66.2,65,30.04,6.2,SW,8.1,-,N/A,,Partly Cloudy,220,2013-08-31 10:15:00
12:45 PM,80.6,66.2,61,30.04,6.2,SW,6.9,-,N/A,,Partly Cloudy,230,2013-08-31 10:45:00
1:15 PM,80.6,66.2,61,30.04,6.2,SW,8.1,-,N/A,,Partly Cloudy,230,2013-08-31 11:15:00
1:45 PM,82.4,66.2,58,30.04,6.2,SW,8.1,-,N/A,,Partly Cloudy,230,2013-08-31 11:45:00
2:15 PM,82.4,66.2,58,30.04,6.2,SSW,9.2,-,N/A,,Partly Cloudy,210,2013-08-31 12:15:00
2:45 PM,82.4,66.2,58,30.01,6.2,SW,10.4,-,N/A,,Partly Cloudy,230,2013-08-31 12:45:00
3:15 PM,82.4,66.2,58,30.01,6.2,SW,9.2,-,N/A,,Partly Cloudy,220,2013-08-31 13:15:00
3:45 PM,82.4,64.4,54,30.01,6.2,SW,6.9,-,N/A,,Partly Cloudy,220,2013-08-31 13:45:00
4:15 PM,82.4,66.2,58,30.01,6.2,WSW,6.9,-,N/A,,Partly Cloudy,240,2013-08-31 14:15:00
4:45 PM,82.4,66.2,58,30.01,6.2,West,4.6,-,N/A,,Partly Cloudy,260,2013-08-31 14:45:00
5:15 PM,82.4,66.2,58,30.01,6.2,WSW,4.6,-,N/A,,Scattered Clouds,240,2013-08-31 15:15:00
5:45 PM,80.6,66.2,61,30.01,6.2,WSW,5.8,-,N/A,,Scattered Clouds,240,2013-08-31 15:45:00
6:15 PM,80.6,64.4,58,29.98,6.2,WSW,5.8,-,N/A,,Partly Cloudy,240,2013-08-31 16:15:00
6:45 PM,77.0,66.2,69,29.98,6.2,WSW,8.1,-,N/A,,Partly Cloudy,240,2013-08-31 16:45:00
7:15 PM,77.0,68.0,74,29.98,6.2,SW,5.8,-,N/A,,Partly Cloudy,230,2013-08-31 17:15:00
7:45 PM,75.2,68.0,78,29.98,6.2,SW,5.8,-,N/A,,Partly Cloudy,230,2013-08-31 17:45:00
8:15 PM,75.2,69.8,83,30.01,6.2,SSW,3.5,-,N/A,,Partly Cloudy,210,2013-08-31 18:15:00
8:45 PM,73.4,69.8,88,30.01,6.2,South,5.8,-,N/A,,Scattered Clouds,180,2013-08-31 18:45:00
9:15 PM,73.4,69.8,88,30.04,6.2,SSW,3.5,-,N/A,,Partly Cloudy,200,2013-08-31 19:15:00
9:45 PM,73.4,69.8,88,30.04,6.2,South,3.5,-,N/A,,Partly Cloudy,190,2013-08-31 19:45:00
10:15 PM,71.6,68.0,88,30.04,6.2,South,3.5,-,N/A,,Partly Cloudy,180,2013-08-31 20:15:00
10:45 PM,71.6,68.0,88,30.04,-9999.0,South,3.5,-,N/A,,Clear,170,2013-08-31 20:45:00
11:15 PM,71.6,68.0,88,30.04,-9999.0,SSE,4.6,-,N/A,,Clear,150,2013-08-31 21:15:00
11:45 PM,69.8,68.0,94,30.04,-9999.0,ESE,4.6,-,N/A,,Clear,120,2013-08-31 21:45:00